Skip Page Navigation
NASA JPL Caltech
NASA Logo - Jet Propulsion Laboratory + View the NASA Portal
+ Center for Near-Earth Object Studies
JPL Home Earth Solar System Stars & Galaxies Technology
JPL Solar System Dynamics
BODIES ORBITS EPHEMERIDES TOOLS PHYSICAL DATA DISCOVERY FAQ SITE MAP
IMPORTANT: The SSD Announcement email list is now available. Major changes are coming in the near future, including possible hostname and/or URL changes. To be notified of such changes, subscribe to this email list.

Please visit this page for more details.


JPL Small-Body Database Browser
Search: [ help ]  
71505 (2000 CD30)
Classification: Main-belt Asteroid          SPK-ID: 2071505
Ephemeris | Orbit Diagram | Orbital Elements | Mission Design | Physical Parameters | Discovery Circumstances | Close-Approach Data ]

[ show orbit diagram ]
Orbital Elements at Epoch 2459000.5 (2020-May-31.0) TDB
Reference: JPL 27 (heliocentric ecliptic J2000)
 Element Value Uncertainty (1-sigma)   Units 
e .1113866112662211 4.796e-08  
a 3.118206356128568 2.2071e-08 au
q 2.770879916890616 1.4851e-07 au
i 5.500018695921606 5.1214e-06 deg
node 161.2278334903623 4.3846e-05 deg
peri 47.73878975198051 4.7073e-05 deg
M 196.6161064858272 1.8308e-05 deg
tp 2459913.272287527684
(2022-Nov-29.77228753)
0.00010601 TDB
period 2011.202061857229
5.51
2.1353e-05
5.846e-08
d
yr
n .1789974298592161 1.9005e-09 deg/d
Q 3.465532795366521 2.453e-08 au
  Orbit Determination Parameters
   # obs. used (total)      1092  
   data-arc span      7239 days (19.82 yr)  
   first obs. used      2000-02-02  
   last obs. used      2019-11-28  
   planetary ephem.      DE431  
   SB-pert. ephem.      SB431-N16  
   condition code      0  
   norm. resid. RMS      .55952  
   source      ORB  
   producer      Otto Matic  
   solution date      2019-Dec-14 07:16:48  

Additional Information
 Earth MOID = 1.7701 au 
 Jupiter MOID = 1.50426 au 
 T_jup = 3.200 
[ show covariance matrix ]

Ephemeris | Orbit Diagram | Orbital Elements | Mission Design | Physical Parameters | Discovery Circumstances | Close-Approach Data ]

Physical Parameter Table
Parameter Symbol Value Units Sigma Reference Notes
absolute magnitude H 13.9   n/a MPO359243  
diameter diameter 8.848 km 0.392 urn:nasa:pds:neowise_diameters_albedos::2.0[mainbelt] (http://adsabs.harvard.edu/abs/2011ApJ...741...68M)  
geometric albedo albedo 0.082   0.015 urn:nasa:pds:neowise_diameters_albedos::2.0[mainbelt] (http://adsabs.harvard.edu/abs/2011ApJ...741...68M)  

71505 (2000 CD30)          Discovered 2000-Feb-02 by LINEAR at Socorro
Reference: 20031109/Numbers.arcLast Updated: 2004-04-19

[ show close-approach data ]
Alternate Designations
 2000 CD30 = 2001 KG11 
Ephemeris | Orbit Diagram | Orbital Elements | Mission Design | Physical Parameters | Discovery Circumstances | Close-Approach Data ]
ABOUT SSD CREDITS/AWARDS PRIVACY/COPYRIGHT GLOSSARY LINKS
FirstGov 2020-May-26 21:51 UT
(server date/time)  
NASA Home Page
Site Manager:   Ryan S. Park
Webmaster  Alan B. Chamberlin